﻿測定場所 (Monitoring sites),日付 (Measurement date),時間 (Measurement time),線量率 最大値 (max) μGy/h,線量率 最小値 (min) μGy/h,線量率 平均値 (average) μGy/h,
江戸川 (Edogawa),2021-01-17,23:01～24:00,0.0487,0.0436,0.0460,
江戸川 (Edogawa),2021-01-17,22:01～23:00,0.0493,0.0429,0.0460,
江戸川 (Edogawa),2021-01-17,21:01～22:00,0.0497,0.0433,0.0458,
江戸川 (Edogawa),2021-01-17,20:01～21:00,0.0483,0.0424,0.0455,
江戸川 (Edogawa),2021-01-17,19:01～20:00,0.0492,0.0437,0.0458,
江戸川 (Edogawa),2021-01-17,18:01～19:00,0.0503,0.0420,0.0456,
江戸川 (Edogawa),2021-01-17,17:01～18:00,0.0502,0.0421,0.0453,
江戸川 (Edogawa),2021-01-17,16:01～17:00,0.0478,0.0428,0.0454,
江戸川 (Edogawa),2021-01-17,15:01～16:00,0.0488,0.0428,0.0457,
江戸川 (Edogawa),2021-01-17,14:01～15:00,0.0488,0.0426,0.0459,
江戸川 (Edogawa),2021-01-17,13:01～14:00,0.0492,0.0426,0.0459,
江戸川 (Edogawa),2021-01-17,12:01～13:00,0.0496,0.0423,0.0460,
江戸川 (Edogawa),2021-01-17,11:01～12:00,0.0507,0.0438,0.0464,
江戸川 (Edogawa),2021-01-17,10:01～11:00,0.0491,0.0434,0.0462,
江戸川 (Edogawa),2021-01-17,09:01～10:00,0.0489,0.0435,0.0464,
江戸川 (Edogawa),2021-01-17,08:01～09:00,0.0508,0.0439,0.0465,
江戸川 (Edogawa),2021-01-17,07:01～08:00,0.0499,0.0431,0.0464,
江戸川 (Edogawa),2021-01-17,06:01～07:00,0.0489,0.0410,0.0462,
江戸川 (Edogawa),2021-01-17,05:01～06:00,0.0503,0.0440,0.0466,
江戸川 (Edogawa),2021-01-17,04:01～05:00,0.0506,0.0433,0.0465,
江戸川 (Edogawa),2021-01-17,03:01～04:00,0.0493,0.0443,0.0467,
江戸川 (Edogawa),2021-01-17,02:01～03:00,0.0498,0.0441,0.0466,
江戸川 (Edogawa),2021-01-17,01:01～02:00,0.0495,0.0428,0.0465,
江戸川 (Edogawa),2021-01-17,00:01～01:00,0.0498,0.0428,0.0467,
江戸川 (Edogawa),2021-01-16,23:01～24:00,0.0503,0.0432,0.0465,
江戸川 (Edogawa),2021-01-16,22:01～23:00,0.0507,0.0440,0.0468,
江戸川 (Edogawa),2021-01-16,21:01～22:00,0.0500,0.0434,0.0464,
江戸川 (Edogawa),2021-01-16,20:01～21:00,0.0489,0.0437,0.0464,
江戸川 (Edogawa),2021-01-16,19:01～20:00,0.0498,0.0427,0.0467,
江戸川 (Edogawa),2021-01-16,18:01～19:00,0.0499,0.0433,0.0462,
江戸川 (Edogawa),2021-01-16,17:01～18:00,0.0500,0.0440,0.0472,
江戸川 (Edogawa),2021-01-16,16:01～17:00,0.0515,0.0434,0.0471,
江戸川 (Edogawa),2021-01-16,15:01～16:00,0.0504,0.0438,0.0465,
江戸川 (Edogawa),2021-01-16,14:01～15:00,0.0497,0.0432,0.0462,
江戸川 (Edogawa),2021-01-16,13:01～14:00,0.0482,0.0427,0.0458,
江戸川 (Edogawa),2021-01-16,12:01～13:00,0.0488,0.0428,0.0461,
江戸川 (Edogawa),2021-01-16,11:01～12:00,0.0492,0.0434,0.0462,
江戸川 (Edogawa),2021-01-16,10:01～11:00,0.0497,0.0442,0.0468,
江戸川 (Edogawa),2021-01-16,09:01～10:00,0.0502,0.0417,0.0461,
江戸川 (Edogawa),2021-01-16,08:01～09:00,0.0494,0.0435,0.0463,
江戸川 (Edogawa),2021-01-16,07:01～08:00,0.0481,0.0430,0.0456,
江戸川 (Edogawa),2021-01-16,06:01～07:00,0.0507,0.0432,0.0460,
江戸川 (Edogawa),2021-01-16,05:01～06:00,0.0486,0.0424,0.0458,
江戸川 (Edogawa),2021-01-16,04:01～05:00,0.0485,0.0419,0.0457,
江戸川 (Edogawa),2021-01-16,03:01～04:00,0.0483,0.0431,0.0461,
江戸川 (Edogawa),2021-01-16,02:01～03:00,0.0487,0.0428,0.0455,
江戸川 (Edogawa),2021-01-16,01:01～02:00,0.0488,0.0435,0.0457,
江戸川 (Edogawa),2021-01-16,00:01～01:00,0.0485,0.0425,0.0456,
江戸川 (Edogawa),2021-01-15,23:01～24:00,0.0493,0.0421,0.0460,
江戸川 (Edogawa),2021-01-15,22:01～23:00,0.0496,0.0429,0.0457,
江戸川 (Edogawa),2021-01-15,21:01～22:00,0.0482,0.0420,0.0453,
江戸川 (Edogawa),2021-01-15,20:01～21:00,0.0493,0.0419,0.0451,
江戸川 (Edogawa),2021-01-15,19:01～20:00,0.0479,0.0425,0.0454,
江戸川 (Edogawa),2021-01-15,18:01～19:00,0.0504,0.0423,0.0455,
江戸川 (Edogawa),2021-01-15,17:01～18:00,0.0481,0.0424,0.0451,
江戸川 (Edogawa),2021-01-15,16:01～17:00,0.0484,0.0422,0.0454,
江戸川 (Edogawa),2021-01-15,15:01～16:00,0.0494,0.0429,0.0458,
江戸川 (Edogawa),2021-01-15,14:01～15:00,0.0510,0.0441,0.0467,
江戸川 (Edogawa),2021-01-15,13:01～14:00,0.0524,0.0449,0.0485,
江戸川 (Edogawa),2021-01-15,12:01～13:00,0.0526,0.0435,0.0476,
江戸川 (Edogawa),2021-01-15,11:01～12:00,0.0505,0.0427,0.0463,
江戸川 (Edogawa),2021-01-15,10:01～11:00,0.0490,0.0439,0.0465,
江戸川 (Edogawa),2021-01-15,09:01～10:00,0.0504,0.0431,0.0466,
江戸川 (Edogawa),2021-01-15,08:01～09:00,0.0504,0.0434,0.0464,
江戸川 (Edogawa),2021-01-15,07:01～08:00,0.0489,0.0423,0.0460,
江戸川 (Edogawa),2021-01-15,06:01～07:00,0.0498,0.0436,0.0462,
江戸川 (Edogawa),2021-01-15,05:01～06:00,0.0488,0.0426,0.0460,
江戸川 (Edogawa),2021-01-15,04:01～05:00,0.0490,0.0420,0.0455,
江戸川 (Edogawa),2021-01-15,03:01～04:00,0.0480,0.0427,0.0457,
江戸川 (Edogawa),2021-01-15,02:01～03:00,0.0489,0.0428,0.0457,
江戸川 (Edogawa),2021-01-15,01:01～02:00,0.0490,0.0428,0.0456,
江戸川 (Edogawa),2021-01-15,00:01～01:00,0.0488,0.0414,0.0458,
江戸川 (Edogawa),2021-01-14,23:01～24:00,0.0501,0.0424,0.0457,
江戸川 (Edogawa),2021-01-14,22:01～23:00,0.0489,0.0425,0.0457,
江戸川 (Edogawa),2021-01-14,21:01～22:00,0.0480,0.0420,0.0458,
江戸川 (Edogawa),2021-01-14,20:01～21:00,0.0487,0.0436,0.0460,
江戸川 (Edogawa),2021-01-14,19:01～20:00,0.0492,0.0427,0.0457,
江戸川 (Edogawa),2021-01-14,18:01～19:00,0.0487,0.0432,0.0457,
江戸川 (Edogawa),2021-01-14,17:01～18:00,0.0493,0.0429,0.0456,
江戸川 (Edogawa),2021-01-14,16:01～17:00,0.0499,0.0437,0.0459,
江戸川 (Edogawa),2021-01-14,15:01～16:00,0.0502,0.0432,0.0461,
江戸川 (Edogawa),2021-01-14,14:01～15:00,0.0497,0.0431,0.0465,
江戸川 (Edogawa),2021-01-14,13:01～14:00,0.0499,0.0442,0.0467,
江戸川 (Edogawa),2021-01-14,12:01～13:00,0.0499,0.0428,0.0470,
江戸川 (Edogawa),2021-01-14,11:01～12:00,0.0504,0.0434,0.0471,
江戸川 (Edogawa),2021-01-14,10:01～11:00,0.0500,0.0428,0.0470,
江戸川 (Edogawa),2021-01-14,09:01～10:00,0.0498,0.0425,0.0470,
江戸川 (Edogawa),2021-01-14,08:01～09:00,0.0499,0.0432,0.0466,
江戸川 (Edogawa),2021-01-14,07:01～08:00,0.0499,0.0441,0.0467,
江戸川 (Edogawa),2021-01-14,06:01～07:00,0.0506,0.0435,0.0467,
江戸川 (Edogawa),2021-01-14,05:01～06:00,0.0504,0.0434,0.0464,
江戸川 (Edogawa),2021-01-14,04:01～05:00,0.0497,0.0437,0.0466,
江戸川 (Edogawa),2021-01-14,03:01～04:00,0.0500,0.0429,0.0465,
江戸川 (Edogawa),2021-01-14,02:01～03:00,0.0487,0.0436,0.0462,
江戸川 (Edogawa),2021-01-14,01:01～02:00,0.0510,0.0423,0.0459,
江戸川 (Edogawa),2021-01-14,00:01～01:00,0.0493,0.0436,0.0460,
江戸川 (Edogawa),2021-01-13,23:01～24:00,0.0501,0.0417,0.0459,
江戸川 (Edogawa),2021-01-13,22:01～23:00,0.0493,0.0431,0.0457,
江戸川 (Edogawa),2021-01-13,21:01～22:00,0.0486,0.0425,0.0458,
江戸川 (Edogawa),2021-01-13,20:01～21:00,0.0503,0.0417,0.0458,
江戸川 (Edogawa),2021-01-13,19:01～20:00,0.0471,0.0428,0.0452,
江戸川 (Edogawa),2021-01-13,18:01～19:00,0.0487,0.0432,0.0455,
江戸川 (Edogawa),2021-01-13,17:01～18:00,0.0486,0.0428,0.0457,
江戸川 (Edogawa),2021-01-13,16:01～17:00,0.0488,0.0420,0.0460,
江戸川 (Edogawa),2021-01-13,15:01～16:00,0.0499,0.0443,0.0468,
江戸川 (Edogawa),2021-01-13,14:01～15:00,0.0499,0.0431,0.0467,
江戸川 (Edogawa),2021-01-13,13:01～14:00,0.0501,0.0434,0.0464,
江戸川 (Edogawa),2021-01-13,12:01～13:00,0.0502,0.0440,0.0473,
江戸川 (Edogawa),2021-01-13,11:01～12:00,0.0521,0.0438,0.0474,
江戸川 (Edogawa),2021-01-13,10:01～11:00,0.0525,0.0444,0.0471,
江戸川 (Edogawa),2021-01-13,09:01～10:00,0.0502,0.0445,0.0471,
江戸川 (Edogawa),2021-01-13,08:01～09:00,0.0514,0.0434,0.0468,
江戸川 (Edogawa),2021-01-13,07:01～08:00,0.0493,0.0425,0.0464,
江戸川 (Edogawa),2021-01-13,06:01～07:00,0.0507,0.0424,0.0461,
江戸川 (Edogawa),2021-01-13,05:01～06:00,0.0498,0.0421,0.0460,
江戸川 (Edogawa),2021-01-13,04:01～05:00,0.0492,0.0430,0.0463,
江戸川 (Edogawa),2021-01-13,03:01～04:00,0.0491,0.0432,0.0457,
江戸川 (Edogawa),2021-01-13,02:01～03:00,0.0484,0.0425,0.0456,
江戸川 (Edogawa),2021-01-13,01:01～02:00,0.0488,0.0421,0.0458,
江戸川 (Edogawa),2021-01-13,00:01～01:00,0.0485,0.0410,0.0455,
江戸川 (Edogawa),2021-01-12,23:01～24:00,0.0481,0.0405,0.0453,
江戸川 (Edogawa),2021-01-12,22:01～23:00,0.0488,0.0417,0.0458,
江戸川 (Edogawa),2021-01-12,21:01～22:00,0.0481,0.0426,0.0450,
江戸川 (Edogawa),2021-01-12,20:01～21:00,0.0503,0.0429,0.0455,
江戸川 (Edogawa),2021-01-12,19:01～20:00,0.0488,0.0424,0.0459,
江戸川 (Edogawa),2021-01-12,18:01～19:00,0.0504,0.0422,0.0463,
江戸川 (Edogawa),2021-01-12,17:01～18:00,0.0508,0.0442,0.0479,
江戸川 (Edogawa),2021-01-12,16:01～17:00,0.0527,0.0451,0.0493,
江戸川 (Edogawa),2021-01-12,15:01～16:00,0.0518,0.0453,0.0484,
江戸川 (Edogawa),2021-01-12,14:01～15:00,0.0522,0.0465,0.0494,
江戸川 (Edogawa),2021-01-12,13:01～14:00,0.0522,0.0463,0.0497,
江戸川 (Edogawa),2021-01-12,12:01～13:00,0.0530,0.0470,0.0501,
江戸川 (Edogawa),2021-01-12,11:01～12:00,0.0521,0.0429,0.0466,
江戸川 (Edogawa),2021-01-12,10:01～11:00,0.0522,0.0427,0.0465,
江戸川 (Edogawa),2021-01-12,09:01～10:00,0.0498,0.0432,0.0463,
江戸川 (Edogawa),2021-01-12,08:01～09:00,0.0513,0.0443,0.0470,
江戸川 (Edogawa),2021-01-12,07:01～08:00,0.0505,0.0431,0.0467,
江戸川 (Edogawa),2021-01-12,06:01～07:00,0.0498,0.0441,0.0469,
江戸川 (Edogawa),2021-01-12,05:01～06:00,0.0504,0.0424,0.0467,
江戸川 (Edogawa),2021-01-12,04:01～05:00,0.0498,0.0438,0.0465,
江戸川 (Edogawa),2021-01-12,03:01～04:00,0.0501,0.0441,0.0467,
江戸川 (Edogawa),2021-01-12,02:01～03:00,0.0502,0.0438,0.0463,
江戸川 (Edogawa),2021-01-12,01:01～02:00,0.0484,0.0428,0.0459,
江戸川 (Edogawa),2021-01-12,00:01～01:00,0.0486,0.0430,0.0458,
江戸川 (Edogawa),2021-01-11,23:01～24:00,0.0491,0.0434,0.0459,
江戸川 (Edogawa),2021-01-11,22:01～23:00,0.0488,0.0432,0.0458,
江戸川 (Edogawa),2021-01-11,21:01～22:00,0.0482,0.0430,0.0456,
江戸川 (Edogawa),2021-01-11,20:01～21:00,0.0489,0.0434,0.0458,
江戸川 (Edogawa),2021-01-11,19:01～20:00,0.0487,0.0418,0.0458,
江戸川 (Edogawa),2021-01-11,18:01～19:00,0.0481,0.0431,0.0456,
江戸川 (Edogawa),2021-01-11,17:01～18:00,0.0484,0.0417,0.0459,
江戸川 (Edogawa),2021-01-11,16:01～17:00,0.0489,0.0423,0.0454,
江戸川 (Edogawa),2021-01-11,15:01～16:00,0.0476,0.0425,0.0455,
江戸川 (Edogawa),2021-01-11,14:01～15:00,0.0488,0.0418,0.0456,
江戸川 (Edogawa),2021-01-11,13:01～14:00,0.0486,0.0424,0.0458,
江戸川 (Edogawa),2021-01-11,12:01～13:00,0.0486,0.0430,0.0462,
江戸川 (Edogawa),2021-01-11,11:01～12:00,0.0492,0.0433,0.0462,
江戸川 (Edogawa),2021-01-11,10:01～11:00,0.0495,0.0438,0.0462,
江戸川 (Edogawa),2021-01-11,09:01～10:00,0.0484,0.0438,0.0461,
江戸川 (Edogawa),2021-01-11,08:01～09:00,0.0493,0.0444,0.0468,
江戸川 (Edogawa),2021-01-11,07:01～08:00,0.0491,0.0425,0.0466,
江戸川 (Edogawa),2021-01-11,06:01～07:00,0.0497,0.0434,0.0469,
江戸川 (Edogawa),2021-01-11,05:01～06:00,0.0513,0.0439,0.0464,
江戸川 (Edogawa),2021-01-11,04:01～05:00,0.0502,0.0428,0.0463,
江戸川 (Edogawa),2021-01-11,03:01～04:00,0.0496,0.0426,0.0462,
江戸川 (Edogawa),2021-01-11,02:01～03:00,0.0500,0.0441,0.0464,
江戸川 (Edogawa),2021-01-11,01:01～02:00,0.0483,0.0426,0.0458,
江戸川 (Edogawa),2021-01-11,00:01～01:00,0.0489,0.0426,0.0455,
